Regional Weather Roundup
Issued by NWS Green Bay, WI

Home | Current Version | Previous Version | Graphics & Text | Print | Product List | Glossary Off
Versions: 1 2 3 4 5 6 7 8 9 10 11 12 13 14 15 16 17 18 19 20 21 22 23 24 25 26 27 28 29 30 31 32 33 34 35 36 37 38 39 40 41 42 43 44 45 46 47 48 49 50

000
ASUS43 KGRB 291311
RWRGRB

NORTH-CENTRAL AND NORTHEAST WISCONSIN REGIONAL WEATHER ROUNDUP
NATIONAL WEATHER SERVICE GREEN BAY WI
800 AM CDT MON JUN 29 2015

WIZ005-009-010>012-018-019-291400-
NORTH CENTRAL WISCONSIN

CITY           SKY/WX    TMP DP  RH WIND       PRES   REMARKS
IRONWOOD       CLOUDY    63  63 100 SW5       29.77F
MANITOWISH WTR MOSUNNY   61  61 100 SW3       29.82S
ARBOR VITAE    MOSUNNY   62  60  93 CALM      29.83R
EAGLE RIVER    SUNNY     63  61  93 CALM      29.82S
LAND O LAKES   PTSUNNY   62  62 100 SW3       29.83S
RHINELANDER    SUNNY     64  58  80 CALM      29.83S
PHILLIPS       SUNNY     63  60  90 CALM      29.82S
ANTIGO         CLOUDY    64  60  87 CALM      29.83S
TOMAHAWK       SUNNY     60  59  97 CALM      29.83S
MERRILL          N/A     62  60  92 CALM      29.83S
$$

WIZ013-073-291400-
NORTHEAST WISCONSIN

CITY           SKY/WX    TMP DP  RH WIND       PRES   REMARKS
IRON MOUNTAIN  SUNNY     65  58  78 CALM      29.81R
MARINETTE      PTSUNNY   68  57  68 CALM      29.81R
OCONTO         CLOUDY    66  61  85 CALM      29.81S
$$

WIZ017-030-035>037-045-291400-
CENTRAL WISCONSIN

CITY           SKY/WX    TMP DP  RH WIND       PRES   REMARKS
MEDFORD        FOG       60  60 100 CALM      29.83S VSB<1/4
WAUSAU         CLOUDY    64  60  87 N3        29.81R
MOSINEE        CLOUDY    64  63  94 W3        29.84R
MARSHFIELD     CLOUDY    64  59  83 NW3       29.83R
WISC RAPIDS    CLOUDY    66  59  78 NW5       29.83R
STEVENS POINT  CLOUDY    62  59  88 NW5       29.83R
WAUPACA        PTSUNNY   67  63  85 S3        29.82S
SHAWANO        CLOUDY    67  60  78 CALM      29.82S
CLINTONVILLE   CLOUDY   N/A N/A N/A SW3       29.82R
$$

WIZ038-039-048-051-291400-
FOX VALLEY

CITY           SKY/WX    TMP DP  RH WIND       PRES   REMARKS
NWS GREEN BAY  PTSUNNY   66  59  78 SE5       29.82S
APPLETON       PTSUNNY   66  55  68 VRB5      29.82S
OSHKOSH        PTSUNNY   67  59  75 S5        29.81S
FOND DU LAC    PTSUNNY   67  60  78 VRB3      29.82R
$$

WIZ022-050-052-291400-
EAST CENTRAL WISCONSIN

CITY           SKY/WX    TMP DP  RH WIND       PRES   REMARKS
STURGEON BAY   PTSUNNY   64  55  72 SE5       29.85R
MANITOWOC      MOSUNNY   64  53  67 MISG      29.83S
SHEBOYGAN      MOSUNNY   66  53  63 CALM      29.82R
$$

LMZ563-521-522-541>543-291400-
LAKESHORE

STATION/POSITION TIME  TEMP    WIND        PRES    VSBY  WAVE
                       AIR SEA DIR/SP/G                  HT/PER
                 (UTC) (F)     (DEG/KT/KT) (MB)    (MI)  (FT/S)
SHEBOYGAN LKSHOR 1300   60      CALM  /  1 1010.2R
KEWAUNEE LKSHORE 1200   59     170/  2/  3 1009.1R
ALGOMA MARINA    1240          210/  5/  7   N/A
TWO RIVERS CG    1200   59 68              1009.7      6   0
NORTHPORT PIER   1200   62     150/  3/  5 1009.8R
N MID LAKE BUOY  1250   48 39  200/  6/  6 1010.2R         1
STURGEON BAY CG  1155   57     180/  5     1022.6      6   1
CHAMBERS ISLAND  1200   69     200/  2/  4 1009.5R
MENOMINEE LKSHOR 1200   67      CALM  /  1 1009.9R
$$


USA.gov is the U.S. government's official web portal to all federal, state and local government web resources and services.